| time (UTC) | temp F | wind direction | speed MPH | gust MPH | rain 1hr in | rain 24hr in | rain mn in | humidity % | barometer mb |
| 20260506194542 | 62 | 103 | 5.0 | 11.0 | 0.00 | 0.04 | 0.04 | 75 | 1014.9 |
| 20260506193040 | 61 | 64 | 5.0 | 12.0 | 0.00 | 0.04 | 0.04 | 75 | 1014.8 |
| 20260506191552 | 61 | 19 | 6.0 | 11.0 | 0.00 | 0.04 | 0.04 | 77 | 1015.0 |
| 20260506190050 | 60 | 55 | 6.0 | 12.0 | 0.00 | 0.04 | 0.04 | 77 | 1015.1 |
| 20260506184552 | 60 | 22 | 7.0 | 15.0 | 0.00 | 0.04 | 0.04 | 78 | 1015.1 |
| 20260506183043 | 59 | 24 | 8.0 | 15.0 | 0.00 | 0.04 | 0.04 | 78 | 1015.5 |
| 20260506181544 | 59 | 65 | 8.0 | 15.0 | 0.00 | 0.04 | 0.04 | 78 | 1015.8 |
| 20260506180048 | 59 | 34 | 8.0 | 17.0 | 0.00 | 0.04 | 0.04 | 79 | 1015.9 |
| 20260506174550 | 59 | 10 | 10.0 | 17.0 | 0.00 | 0.04 | 0.04 | 79 | 1015.8 |
| 20260506173054 | 58 | 27 | 9.0 | 15.0 | 0.00 | 0.04 | 0.04 | 80 | 1016.0 |
| 20260506171557 | 57 | 40 | 10.0 | 16.0 | 0.00 | 0.04 | 0.04 | 81 | 1015.9 |
| 20260506170043 | 57 | 17 | 11.0 | 18.0 | 0.00 | 0.04 | 0.04 | 81 | 1015.6 |
| 20260506164549 | 56 | 355 | 10.0 | 15.0 | 0.00 | 0.04 | 0.04 | 82 | 1015.6 |
| 20260506163058 | 56 | 45 | 10.0 | 17.0 | 0.00 | 0.04 | 0.04 | 82 | 1015.7 |
| 20260506161544 | 55 | 39 | 12.0 | 16.0 | 0.00 | 0.04 | 0.04 | 83 | 1015.3 |
| 20260506160050 | 55 | 15 | 12.0 | 17.0 | 0.00 | 0.04 | 0.04 | 83 | 1015.3 |
| 20260506154548 | 55 | 5 | 12.0 | 16.0 | 0.00 | 0.04 | 0.04 | 84 | 1015.0 |
| 20260506153050 | 54 | 35 | 11.0 | 16.0 | 0.00 | 0.04 | 0.04 | 87 | 1014.7 |
| 20260506151544 | 54 | 30 | 13.0 | 19.0 | 0.00 | 0.04 | 0.04 | 87 | 1014.7 |
| 20260506150045 | 53 | 19 | 12.0 | 20.0 | 0.00 | 0.04 | 0.04 | 89 | 1014.5 |
| 20260506144546 | 53 | 13 | 13.0 | 17.0 | 0.00 | 0.04 | 0.04 | 89 | 1014.4 |
| 20260506143040 | 52 | 9 | 12.0 | 20.0 | 0.03 | 0.04 | 0.04 | 89 | 1014.4 |
| 20260506141544 | 52 | 14 | 16.0 | 22.0 | 0.03 | 0.04 | 0.04 | 89 | 1013.7 |
| 20260506140046 | 52 | 11 | 12.0 | 20.0 | 0.03 | 0.04 | 0.04 | 90 | 1013.8 |
| 20260506134547 | 52 | 30 | 9.0 | 15.0 | 0.03 | 0.03 | 0.03 | 89 | 1014.2 |
| 20260506133046 | 52 | 25 | 9.0 | 19.0 | 0.01 | 0.01 | 0.01 | 88 | 1014.2 |
| 20260506131547 | 53 | 34 | 15.0 | 21.0 | 0.01 | 0.01 | 0.01 | 88 | 1012.9 |
| 20260506130047 | 53 | 75 | 11.0 | 21.0 | 0.01 | 0.01 | 0.01 | 87 | 1012.9 |
| 20260506124547 | 54 | 39 | 6.0 | 21.0 | 0.00 | 0.00 | 0.00 | 84 | 1014.8 |
| 20260506123043 | 54 | 24 | 10.0 | 17.0 | 0.00 | 0.00 | 0.00 | 83 | 1014.1 |
| 20260506121557 | 55 | 59 | 10.0 | 19.0 | 0.00 | 0.00 | 0.00 | 82 | 1012.3 |
| 20260506120053 | 55 | 40 | 10.0 | 16.0 | 0.00 | 0.00 | 0.00 | 82 | 1012.0 |
| 20260506114552 | 55 | 11 | 12.0 | 18.0 | 0.00 | 0.00 | 0.00 | 81 | 1012.7 |
| 20260506113053 | 55 | 28 | 14.0 | 18.0 | 0.00 | 0.00 | 0.00 | 81 | 1012.0 |
| 20260506111542 | 55 | 20 | 12.0 | 17.0 | 0.00 | 0.00 | 0.00 | 81 | 1012.0 |
| 20260506110056 | 55 | 32 | 11.0 | 17.0 | 0.00 | 0.00 | 0.00 | 81 | 1011.6 |
| 20260506104548 | 55 | 42 | 6.0 | 16.0 | 0.00 | 0.00 | 0.00 | 81 | 1011.1 |
| 20260506103045 | 56 | 30 | 11.0 | 16.0 | 0.00 | 0.00 | 0.00 | 80 | 1011.1 |
| 20260506101605 | 56 | 65 | 12.0 | 17.0 | 0.00 | 0.00 | 0.00 | 80 | 1011.4 |
| 20260506100044 | 57 | 26 | 12.0 | 17.0 | 0.00 | 0.00 | 0.00 | 79 | 1011.0 |
| 20260506094540 | 58 | 50 | 12.0 | 19.0 | 0.00 | 0.00 | 0.00 | 79 | 1011.0 |
| 20260506093046 | 58 | 22 | 11.0 | 14.0 | 0.00 | 0.00 | 0.00 | 79 | 1010.8 |
| 20260506091546 | 58 | 31 | 11.0 | 15.0 | 0.00 | 0.00 | 0.00 | 78 | 1010.1 |
| 20260506090058 | 59 | 27 | 8.0 | 15.0 | 0.00 | 0.00 | 0.00 | 78 | 1009.8 |
| 20260506084545 | 60 | 32 | 10.0 | 14.0 | 0.00 | 0.00 | 0.00 | 78 | 1009.8 |
| 20260506083040 | 61 | 34 | 9.0 | 14.0 | 0.00 | 0.00 | 0.00 | 77 | 1010.2 |
| 20260506081548 | 62 | 32 | 9.0 | 13.0 | 0.00 | 0.00 | 0.00 | 77 | 1010.3 |
| 20260506073042 | 64 | 42 | 6.0 | 12.0 | 0.00 | 0.00 | 0.00 | 76 | 1010.2 |
| 20260506071548 | 64 | 46 | 4.0 | 10.0 | 0.00 | 0.00 | 0.00 | 76 | 1010.4 |
| 20260506061548 | 67 | 94 | 5.0 | 10.0 | 0.00 | 0.00 | 0.00 | 71 | 1009.4 |
| 20260506050103 | 74 | 51 | 8.0 | 17.0 | 0.00 | 0.00 | 0.00 | 55 | 1009.3 |
| 20260506044544 | 77 | 49 | 1.0 | 3.0 | 0.00 | 0.00 | 0.00 | 39 | 1009.0 |
| 20260506043046 | 77 | 71 | 1.0 | 4.0 | 0.00 | 0.00 | 0.00 | 39 | 1008.7 |
| 20260506041558 | 77 | 57 | 3.0 | 7.0 | 0.00 | 0.00 | 0.00 | 39 | 1008.8 |
| 20260506040045 | 78 | 76 | 1.0 | 4.0 | 0.00 | 0.00 | 0.00 | 39 | 1008.8 |
| 20260506034550 | 78 | 65 | 2.0 | 4.0 | 0.00 | 0.00 | 0.00 | 37 | 1008.7 |
| 20260506033041 | 78 | 355 | 3.0 | 5.0 | 0.00 | 0.00 | 0.00 | 37 | 1008.8 |
| 20260506031545 | 79 | 13 | 4.0 | 7.0 | 0.00 | 0.00 | 0.00 | 35 | 1008.4 |
| 20260506030044 | 80 | 13 | 3.0 | 5.0 | 0.00 | 0.00 | 0.00 | 34 | 1008.3 |
| 20260506024556 | 80 | 5 | 1.0 | 3.0 | 0.00 | 0.00 | 0.00 | 34 | 1008.1 |
| 20260506023113 | 80 | 0 | 0.0 | 0.0 | 0.00 | 0.00 | 0.00 | 33 | 1008.1 |
| 20260506021548 | 80 | 0 | 0.0 | 3.0 | 0.00 | 0.00 | 0.00 | 33 | 1007.9 |
| 20260506020052 | 80 | 300 | 2.0 | 6.0 | 0.00 | 0.00 | 0.00 | 34 | 1007.6 |
| 20260506014545 | 81 | 296 | 3.0 | 8.0 | 0.00 | 0.00 | 0.00 | 34 | 1007.6 |
| 20260506013052 | 83 | 302 | 5.0 | 10.0 | 0.00 | 0.00 | 0.00 | 34 | 1007.3 |
| 20260506011546 | 85 | 267 | 5.0 | 10.0 | 0.00 | 0.00 | 0.00 | 34 | 1007.0 |
| 20260506010049 | 85 | 255 | 4.0 | 7.0 | 0.00 | 0.00 | 0.00 | 34 | 1007.0 |
| 20260506004544 | 86 | 258 | 5.0 | 8.0 | 0.00 | 0.00 | 0.00 | 32 | 1006.7 |
| 20260506003044 | 87 | 254 | 7.0 | 10.0 | 0.00 | 0.00 | 0.00 | 28 | 1006.6 |
| 20260506001552 | 88 | 263 | 7.0 | 10.0 | 0.00 | 0.00 | 0.00 | 28 | 1006.5 |
| 20260506000047 | 88 | 252 | 7.0 | 11.0 | 0.00 | 0.00 | 0.00 | 30 | 1006.4 |
| 20260505234541 | 89 | 232 | 8.0 | 11.0 | 0.00 | 0.00 | 0.00 | 27 | 1006.3 |
| 20260505233048 | 89 | 265 | 10.0 | 15.0 | 0.00 | 0.00 | 0.00 | 25 | 1006.4 |
| 20260505231547 | 90 | 254 | 12.0 | 17.0 | 0.00 | 0.00 | 0.00 | 25 | 1006.5 |
| 20260505230110 | 90 | 264 | 9.0 | 14.0 | 0.00 | 0.00 | 0.00 | 25 | 1006.5 |
| 20260505224545 | 90 | 257 | 10.0 | 15.0 | 0.00 | 0.00 | 0.00 | 25 | 1006.7 |
| 20260505223048 | 90 | 259 | 10.0 | 19.0 | 0.00 | 0.00 | 0.00 | 26 | 1006.6 |
| 20260505221554 | 90 | 259 | 11.0 | 15.0 | 0.00 | 0.00 | 0.00 | 26 | 1006.5 |
| 20260505220053 | 91 | 266 | 10.0 | 16.0 | 0.00 | 0.00 | 0.00 | 26 | 1006.5 |
| 20260505214542 | 91 | 304 | 4.0 | 13.0 | 0.00 | 0.00 | 0.00 | 28 | 1006.6 |
| 20260505213047 | 91 | 263 | 8.0 | 17.0 | 0.00 | 0.00 | 0.00 | 28 | 1006.6 |
| 20260505211557 | 91 | 253 | 11.0 | 18.0 | 0.00 | 0.00 | 0.00 | 26 | 1006.7 |
| 20260505210044 | 92 | 282 | 9.0 | 17.0 | 0.00 | 0.00 | 0.00 | 30 | 1007.0 |
| 20260505204541 | 91 | 271 | 7.0 | 15.0 | 0.00 | 0.00 | 0.00 | 32 | 1007.1 |
| 20260505203042 | 90 | 254 | 9.0 | 19.0 | 0.00 | 0.00 | 0.00 | 29 | 1007.2 |
| 20260505201549 | 90 | 254 | 5.0 | 18.0 | 0.00 | 0.00 | 0.00 | 34 | 1007.2 |
| 20260505200048 | 90 | 273 | 6.0 | 15.0 | 0.00 | 0.00 | 0.00 | 35 | 1007.4 |